Nellis AFB, NV

3:56 PM PST on December 09, 2019 (GMT -0800)
Nellis Air Force Base

Weather History for KLSV - October, 2019

Change the Weather History Date:

Thursday, October 10, 2019

  Actual Average Record
Temperature  
Mean Temperature 60 °F -  
Max Temperature 67 °F 84 °F 96 °F (1996)
Min Temperature 53 °F 56 °F 50 °F (1998)
Degree Days  
Heating Degree Days 6    
Growing Degree Days 10 (Base 50)    
Moisture  
Dew Point 7 °F    
Average Humidity 12    
Maximum Humidity 16    
Minimum Humidity 8    
Precipitation  
Precipitation 0.00 in - - ()
Sea Level Pressure  
Sea Level Pressure 30.08 in    
Wind  
Wind Speed 21 mph (North)    
Max Wind Speed 30 mph    
Max Gust Speed 41 mph    
Visibility 10 miles    
Events      
Averages and records for this station are not official NWS values.
T = Trace of Precipitation, MM = Missing Value Source: NWS Daily Summary

Daily Weather History Graph

Daily Weather History Graph

Search for Another Location

Airport or City:

Astronomy

Oct. 10, 2019 Rise Set
Actual Time 6:42 AM PDT 6:11 PM PDT
Civil Twilight 6:16 AM PDT 6:36 PM PDT
Nautical Twilight 5:47 AM PDT 7:06 PM PDT
Astronomical Twilight 5:17 AM PDT 7:36 PM PDT
Moon 5:07 PM PDT (10/10) 3:38 AM PDT (10/10)
Length of Visible Light 12h 19m
Length of Day
11h 28m
Waxing Gibbous, 91% of the Moon is Illuminated
Oct 10
Waxing Gibbous
Oct 13
Full
Oct 21
Last Quarter
Oct 27
New
Nov 4
First Quarter

Hourly Weather History & Observations

Time (PDT) Temp. Dew Point Humidity Pressure Visibility Wind Dir Wind Speed Gust Speed Precip Events Conditions
12:58 AM 63.9 °F 1.4 °F 8% 29.83 in 10.0 mi North 26.5 mph 34.5 mph N/A   Clear
1:58 AM 61.7 °F 2.3 °F 9% 29.89 in 10.0 mi North 19.6 mph 39.1 mph N/A   Clear
2:58 AM 59.7 °F 3.0 °F 10% 29.93 in 10.0 mi NNW 19.6 mph 41.4 mph N/A   Clear
3:25 AM 59.0 °F 5.0 °F 12% 29.93 in 10.0 mi North 28.8 mph 36.8 mph N/A   Squalls
3:58 AM 57.9 °F 5.5 °F 12% 29.94 in 10.0 mi North 26.5 mph 39.1 mph N/A   Clear
4:58 AM 55.9 °F 3.9 °F 12% 29.99 in 10.0 mi North 29.9 mph 35.7 mph N/A   Clear
5:58 AM 54.7 °F 4.8 °F 13% 30.04 in 10.0 mi North 20.7 mph 29.9 mph N/A   Clear
6:58 AM 53.4 °F 5.4 °F 14% 30.08 in 10.0 mi North 25.3 mph - N/A   Clear
7:58 AM 54.0 °F 7.3 °F 15% 30.12 in 10.0 mi North 18.4 mph 28.8 mph N/A   Clear
8:58 AM 56.3 °F 10.6 °F 16% 30.15 in 10.0 mi NNW 16.1 mph - N/A   Clear
9:56 AM 57.0 °F 11.3 °F 16% 30.17 in 10.0 mi North 20.7 mph - N/A   Clear
10:56 AM 58.8 °F 8.1 °F 13% 30.18 in 10.0 mi North 16.1 mph 29.9 mph N/A   Clear
11:56 AM 60.3 °F 7.3 °F 12% 30.16 in 10.0 mi North 20.7 mph 27.6 mph N/A   Clear
12:58 PM 62.6 °F 7.3 °F 11% 30.13 in 10.0 mi North 21.9 mph 27.6 mph N/A   Clear
1:45 PM 64.4 °F 6.8 °F 10% 30.11 in 10.0 mi NNW 13.8 mph 26.5 mph N/A   Clear
1:58 PM 64.2 °F 6.4 °F 10% 30.11 in 10.0 mi North 16.1 mph 27.6 mph N/A   Clear
3:58 PM 66.7 °F 6.1 °F 9% 30.07 in 10.0 mi North 19.6 mph 26.5 mph N/A   Clear
4:58 PM 66.7 °F 6.1 °F 9% 30.08 in 10.0 mi North 16.1 mph - N/A   Clear
5:58 PM 65.5 °F 7.3 °F 10% 30.09 in 10.0 mi NNE 15.0 mph - N/A   Clear
6:58 PM 61.3 °F 10.0 °F 13% 30.10 in 10.0 mi NNE 9.2 mph - N/A   Clear
7:58 PM 59.9 °F 9.0 °F 13% 30.13 in 10.0 mi North 9.2 mph - N/A   Clear
8:58 PM 57.9 °F 9.0 °F 14% 30.15 in 10.0 mi NNE 12.7 mph - N/A   Clear
9:58 PM 58.6 °F 6.1 °F 12% 30.19 in 10.0 mi North 12.7 mph - N/A   Clear
10:58 PM 58.6 °F 7.9 °F 13% 30.19 in 10.0 mi North 20.7 mph - N/A   Clear
11:58 PM 57.7 °F 7.2 °F 13% 30.19 in 10.0 mi North 21.9 mph 27.6 mph N/A   Clear